EW7294 Weather Reports


time (UTC)temp
C
wind
direction
speed
KPH
gust
KPH
rain 1hr
cm
rain 24hr
cm
rain mn
cm
humidity
%
barometer
mb
20260503233102 15 237 4.8 16.1 0.00 0.00 0.00 53 1001.3
20260503231600 15 263 6.4 14.5 0.00 0.00 0.00 51 1001.3
20260503224559 15 248 6.4 19.3 0.00 0.00 0.00 52 1001.3
20260503223058 16 233 4.8 14.5 0.00 0.00 0.00 52 1001.3
20260503221601 15 257 6.4 22.5 0.00 0.00 0.00 55 1001.3
20260503220056 15 288 4.8 16.1 0.00 0.00 0.00 56 1001.3
20260503214555 15 231 6.4 19.3 0.00 0.00 0.00 59 1001.3
20260503213054 15 326 4.8 16.1 0.00 0.00 0.00 59 1001.3
20260503211554 15 214 3.2 16.1 0.00 0.00 0.00 59 1001.3
20260503210053 15 153 4.8 16.1 0.00 0.00 0.00 57 1001.3
20260503204552 15 157 3.2 12.9 0.00 0.00 0.00 65 1001.3
20260503203055 15 218 3.2 9.7 0.00 0.00 0.00 67 1001.3
20260503201552 15 269 3.2 14.5 0.00 0.00 0.00 65 1001.3
20260503200054 14 251 3.2 11.3 0.00 0.00 0.00 68 1001.3
20260503194557 15 271 1.6 11.3 0.00 0.00 0.00 63 1001.3
20260503193047 15 276 6.4 16.1 0.00 0.00 0.00 63 1001.3
20260503191547 14 295 3.2 12.9 0.00 0.00 0.00 66 1001.3
20260503190043 15 280 3.2 16.1 0.00 0.00 0.00 65 1001.3
20260503184541 14 283 1.6 14.5 0.00 0.00 0.00 67 1001.3
20260503183038 14 186 3.2 9.7 0.00 0.00 0.00 68 1001.3
20260503181537 13 299 3.2 11.3 0.00 0.00 0.00 69 1001.3
20260503180036 13 287 1.6 11.3 0.00 0.00 0.00 72 1001.3
20260503174535 13 278 1.6 11.3 0.00 0.00 0.00 70 1001.3
20260503173038 13 279 1.6 14.5 0.00 0.00 0.00 67 1001.3
20260503171543 13 284 3.2 12.9 0.00 0.00 0.00 65 1001.3
20260503081524 3 91 1.6 9.7 0.00 0.03 0.00 80 1001.3
20260503071521 2 101 0.0 6.4 0.00 0.08 0.00 82 1001.3
20260503054510 3 124 0.0 3.2 0.00 0.20 0.00 79 1001.3
20260503053010 3 124 0.0 4.8 0.00 0.20 0.00 79 1001.3
20260503051508 3 114 0.0 0.0 0.00 0.20 0.00 79 1001.3
20260503050015 3 117 0.0 0.0 0.00 0.20 0.00 78 1001.3
20260503044505 3 116 0.0 0.0 0.00 0.23 0.00 78 1001.3
20260503043004 3 116 0.0 0.0 0.00 0.23 0.00 77 1001.3
20260503041600 4 116 0.0 0.0 0.00 0.23 0.00 77 1001.3
20260503040116 4 116 0.0 0.0 0.00 0.23 0.00 76 1001.3
20260503034557 5 116 0.0 0.0 0.00 0.23 0.23 74 1001.3
20260503033056 5 115 1.6 3.2 0.00 0.23 0.23 72 1001.3
20260503031605 6 98 0.0 1.6 0.00 0.23 0.23 69 1001.3
20260503030055 6 217 0.0 4.8 0.00 0.23 0.23 65 1001.3
20260503024555 6 155 0.0 3.2 0.00 0.23 0.23 66 1001.3
20260503023054 6 181 0.0 4.8 0.00 0.23 0.23 65 1001.3
20260503021554 6 282 1.6 4.8 0.00 0.23 0.23 66 1001.3
20260503020055 6 290 1.6 4.8 0.00 0.23 0.23 65 1001.3
20260503014608 6 269 0.0 8.0 0.00 0.23 0.23 66 1001.3
20260503013050 6 279 1.6 6.4 0.00 0.23 0.23 68 1001.3
20260503011555 6 266 1.6 6.4 0.00 0.23 0.23 68 1001.3
20260503010049 6 188 1.6 8.0 0.00 0.23 0.23 67 1001.3
20260503004548 6 279 1.6 6.4 0.00 0.23 0.23 67 1001.3
20260503003049 6 294 0.0 4.8 0.00 0.23 0.23 67 1001.3
20260503001559 6 224 0.0 3.2 0.00 0.23 0.23 66 1001.3
20260503000047 6 263 0.0 3.2 0.00 0.23 0.23 68 1001.3
20260502234551 6 288 0.0 4.8 0.00 0.23 0.23 69 1001.3